This is the latest recevied weather packets stored in our database for station/object JE4YKI-13. If no packets are shown the sender has not sent any weather packets the latest 10 day(s).
| Time | Temp. | Humidity | Pressure | Rain* | Wind** | Luminosity | Snow |
|---|---|---|---|---|---|---|---|
| 1777820290 | 16.11° C | 87% | 1001.7 hPa | 0 mm | - | - | - |
| 1777819690 | 16.11° C | 86% | 1001.6 hPa | 0 mm | - | - | - |
| 1777819089 | 16.11° C | 86% | 1001.4 hPa | 0 mm | - | - | - |
| 1777818489 | 16.67° C | 86% | 1001.2 hPa | 0 mm | - | - | - |
| 1777817889 | 16.67° C | 85% | 1001.4 hPa | 0 mm | - | - | - |
| 1777817288 | 17.22° C | 82% | 1001.1 hPa | 0 mm | - | - | - |
| 1777816188 | 17.22° C | 82% | 1001.3 hPa | 0 mm | - | - | - |
| 1777816088 | 17.22° C | 82% | 1001.3 hPa | 0 mm | - | - | - |
| 1777815487 | 17.22° C | 89% | 1001.3 hPa | 0 mm | - | - | - |
| 1777815047 | 17.22° C | 91% | 1001.3 hPa | 0 mm | - | - | - |
| 1777814887 | 17.22° C | 91% | 1001.3 hPa | 0 mm | - | - | - |
| 1777814286 | 17.22° C | 92% | 1001.3 hPa | 0 mm | - | - | - |
| 1777813750 | 17.78° C | 92% | 1001.3 hPa | 0 mm | - | - | - |
| 1777813685 | 17.78° C | 92% | 1001.3 hPa | 0 mm | - | - | - |
| 1777813085 | 17.78° C | 92% | 1001.3 hPa | 0 mm | - | - | - |
| 1777812484 | 17.22° C | 95% | 1001.1 hPa | 0 mm | - | - | - |
| 1777811884 | 17.22° C | 96% | 1001.2 hPa | 0 mm | - | - | - |
| 1777811283 | 17.78° C | 96% | 1001.2 hPa | 0 mm | - | - | - |
| 1777810685 | 17.78° C | 96% | 1001.2 hPa | 0 mm | - | - | - |
| 1777810080 | 17.78° C | 97% | 1000.9 hPa | 0 mm | - | - | - |
| 1777809480 | 17.78° C | 96% | 1001 hPa | 1.02 mm | - | - | - |
| 1777808880 | 17.78° C | 97% | 1001 hPa | 1.78 mm | - | - | - |
| 1777808279 | 17.78° C | 97% | 1001.1 hPa | 1.27 mm | - | - | - |
| 1777807679 | 17.78° C | 97% | 1000.8 hPa | 1.27 mm | - | - | - |
| 1777807077 | 17.78° C | 97% | 1000.7 hPa | 1.02 mm | - | - | - |
* Rain latest hour (hover to see other rain measurements)
** Current wind speed in m/s (hover to see current wind gust speed)